Voltar ao catálogo

STARLINK-4497

AtivoComunicaçõesVLEO
NORAD 53411·PAYLOAD·🇺🇸 United States

Lançado Aug 10, 2022 de Cape Canaveral Space Force Station

Loading…

Próximas Passagens (próximas 24 horas)

TLE

AtualizadoSource: CelesTrak SupGP

Época: Sep 15, 2026, 01:37 UTC

1 53411C 22097Z   26258.06784722  .00138560  00000+0  71249-2 0  2588
2 53411  53.1607 342.9559 0001212  95.0829 302.7202 15.15880252    18

Acompanhe STARLINK-4497 em tempo real com AllMySat

Download on the App Store